| time (UTC) | temp F | wind direction | speed MPH | gust MPH | rain 1hr in | rain 24hr in | rain mn in | humidity % | barometer mb |
| 20260508000006 | 66 | 175 | 0.0 | 3.0 | 0.00 | 0.01 | 0.00 | 71 | 1015.5 |
| 20260507234509 | 67 | 142 | 0.0 | 0.0 | 0.00 | 0.01 | 0.00 | 69 | 1015.6 |
| 20260507233017 | 67 | 142 | 0.0 | 0.0 | 0.00 | 0.01 | 0.00 | 68 | 1015.2 |
| 20260507231518 | 67 | 142 | 0.0 | 0.0 | 0.00 | 0.01 | 0.00 | 65 | 1015.2 |
| 20260507230024 | 68 | 142 | 0.0 | 0.0 | 0.00 | 0.01 | 0.00 | 65 | 1015.7 |
| 20260507224525 | 68 | 142 | 0.0 | 0.0 | 0.00 | 0.01 | 0.00 | 64 | 1015.6 |
| 20260507223013 | 68 | 142 | 0.0 | 0.0 | 0.00 | 0.01 | 0.00 | 64 | 1015.9 |
| 20260507221516 | 67 | 125 | 0.0 | 3.0 | 0.00 | 0.01 | 0.00 | 63 | 1016.0 |
| 20260507220021 | 68 | 87 | 1.0 | 3.0 | 0.00 | 0.01 | 0.00 | 62 | 1015.7 |
| 20260507214524 | 68 | 74 | 2.0 | 4.0 | 0.00 | 0.01 | 0.00 | 66 | 1016.0 |
| 20260507213030 | 67 | 105 | 1.0 | 4.0 | 0.00 | 0.01 | 0.00 | 62 | 1016.1 |
| 20260507211512 | 67 | 78 | 1.0 | 5.0 | 0.00 | 0.01 | 0.00 | 62 | 1016.4 |
| 20260507210019 | 67 | 94 | 2.0 | 4.0 | 0.00 | 0.01 | 0.00 | 62 | 1016.8 |
| 20260507204521 | 67 | 100 | 0.0 | 6.0 | 0.00 | 0.01 | 0.00 | 63 | 1016.7 |
| 20260507203039 | 68 | 69 | 3.0 | 8.0 | 0.00 | 0.01 | 0.00 | 62 | 1016.4 |
| 20260507201531 | 68 | 89 | 1.0 | 7.0 | 0.00 | 0.01 | 0.00 | 62 | 1016.5 |
| 20260507200016 | 68 | 47 | 5.0 | 9.0 | 0.00 | 0.01 | 0.00 | 61 | 1016.6 |
| 20260507194526 | 68 | 20 | 3.0 | 6.0 | 0.00 | 0.01 | 0.00 | 61 | 1016.7 |
| 20260507193022 | 68 | 35 | 2.0 | 7.0 | 0.00 | 0.01 | 0.00 | 61 | 1017.3 |
| 20260507191535 | 68 | 17 | 3.0 | 7.0 | 0.00 | 0.01 | 0.00 | 61 | 1017.7 |
| 20260507190031 | 67 | 57 | 2.0 | 7.0 | 0.00 | 0.01 | 0.00 | 61 | 1018.0 |
| 20260507184521 | 68 | 40 | 4.0 | 10.0 | 0.00 | 0.01 | 0.00 | 60 | 1017.9 |
| 20260507183022 | 67 | 44 | 1.0 | 11.0 | 0.00 | 0.01 | 0.00 | 63 | 1017.6 |
| 20260507181523 | 68 | 346 | 6.0 | 10.0 | 0.00 | 0.01 | 0.00 | 60 | 1017.6 |
| 20260507180028 | 68 | 5 | 9.0 | 12.0 | 0.00 | 0.01 | 0.00 | 61 | 1017.7 |
| 20260507174539 | 68 | 352 | 6.0 | 12.0 | 0.00 | 0.01 | 0.00 | 61 | 1017.8 |
| 20260507173045 | 67 | 5 | 7.0 | 13.0 | 0.00 | 0.01 | 0.00 | 62 | 1018.3 |
| 20260507171526 | 67 | 32 | 4.0 | 15.0 | 0.00 | 0.01 | 0.00 | 63 | 1018.5 |
| 20260507170029 | 67 | 360 | 7.0 | 16.0 | 0.00 | 0.01 | 0.00 | 66 | 1018.6 |
| 20260507164533 | 65 | 49 | 2.0 | 10.0 | 0.00 | 0.01 | 0.00 | 69 | 1019.1 |
| 20260507163032 | 65 | 97 | 3.0 | 12.0 | 0.00 | 0.01 | 0.00 | 68 | 1019.4 |
| 20260507161519 | 64 | 24 | 6.0 | 15.0 | 0.00 | 0.01 | 0.00 | 69 | 1019.3 |
| 20260507160026 | 64 | 42 | 5.0 | 10.0 | 0.00 | 0.01 | 0.00 | 71 | 1019.3 |
| 20260507154506 | 63 | 40 | 5.0 | 9.0 | 0.00 | 0.01 | 0.00 | 71 | 1019.2 |
| 20260507153013 | 62 | 37 | 7.0 | 11.0 | 0.00 | 0.01 | 0.00 | 71 | 1019.3 |
| 20260507151518 | 62 | 350 | 6.0 | 11.0 | 0.00 | 0.01 | 0.00 | 71 | 1019.5 |
| 20260507150034 | 60 | 53 | 3.0 | 11.0 | 0.00 | 0.01 | 0.00 | 72 | 1019.8 |
| 20260507144524 | 59 | 360 | 1.0 | 7.0 | 0.00 | 0.01 | 0.00 | 74 | 1020.0 |
| 20260507143012 | 59 | 16 | 1.0 | 6.0 | 0.00 | 0.01 | 0.00 | 75 | 1019.9 |
| 20260507141516 | 58 | 9 | 2.0 | 10.0 | 0.00 | 0.01 | 0.00 | 74 | 1020.0 |
| 20260507140020 | 57 | 5 | 2.0 | 7.0 | 0.00 | 0.01 | 0.00 | 76 | 1019.7 |
| 20260507134524 | 56 | 347 | 2.0 | 6.0 | 0.00 | 0.01 | 0.00 | 76 | 1019.8 |
| 20260507133042 | 55 | 351 | 1.0 | 5.0 | 0.00 | 0.01 | 0.00 | 77 | 1020.1 |
| 20260507131516 | 55 | 330 | 0.0 | 3.0 | 0.00 | 0.01 | 0.00 | 81 | 1020.4 |
| 20260507130016 | 53 | 322 | 0.0 | 2.0 | 0.00 | 0.01 | 0.00 | 83 | 1020.3 |
| 20260507124527 | 52 | 307 | 0.0 | 0.0 | 0.00 | 0.01 | 0.00 | 83 | 1020.1 |
| 20260507123034 | 52 | 307 | 0.0 | 0.0 | 0.00 | 0.01 | 0.00 | 84 | 1020.0 |
| 20260507121527 | 51 | 307 | 0.0 | 0.0 | 0.00 | 0.01 | 0.00 | 83 | 1020.4 |
| 20260507120018 | 51 | 307 | 0.0 | 1.0 | 0.00 | 0.01 | 0.00 | 83 | 1020.4 |
| 20260507114522 | 51 | 298 | 0.0 | 1.0 | 0.00 | 0.01 | 0.00 | 83 | 1020.2 |
| 20260507113027 | 51 | 304 | 0.0 | 3.0 | 0.00 | 0.01 | 0.00 | 83 | 1019.8 |
| 20260507111527 | 51 | 318 | 0.0 | 2.0 | 0.00 | 0.01 | 0.00 | 83 | 1019.4 |
| 20260507110036 | 51 | 325 | 0.0 | 2.0 | 0.00 | 0.01 | 0.00 | 82 | 1019.1 |
| 20260507104529 | 51 | 321 | 0.0 | 1.0 | 0.00 | 0.01 | 0.00 | 82 | 1018.9 |
| 20260507103031 | 52 | 320 | 0.0 | 1.0 | 0.00 | 0.01 | 0.00 | 81 | 1018.6 |
| 20260507101533 | 52 | 336 | 0.0 | 1.0 | 0.00 | 0.01 | 0.00 | 81 | 1018.3 |
| 20260507100027 | 52 | 26 | 0.0 | 2.0 | 0.00 | 0.01 | 0.00 | 81 | 1017.9 |
| 20260507094534 | 52 | 35 | 0.0 | 4.0 | 0.00 | 0.01 | 0.00 | 81 | 1017.7 |
| 20260507093007 | 53 | 10 | 0.0 | 5.0 | 0.00 | 0.01 | 0.00 | 81 | 1017.5 |
| 20260507091506 | 53 | 5 | 2.0 | 4.0 | 0.00 | 0.01 | 0.00 | 81 | 1017.8 |
| 20260507090010 | 53 | 14 | 0.0 | 2.0 | 0.00 | 0.01 | 0.00 | 81 | 1017.8 |
| 20260507084507 | 53 | 13 | 0.0 | 5.0 | 0.00 | 0.01 | 0.00 | 81 | 1017.5 |
| 20260507083008 | 54 | 9 | 0.0 | 9.0 | 0.00 | 0.01 | 0.00 | 81 | 1017.4 |
| 20260507081507 | 54 | 352 | 1.0 | 8.0 | 0.00 | 0.01 | 0.00 | 80 | 1017.5 |
| 20260507080007 | 55 | 13 | 3.0 | 11.0 | 0.00 | 0.01 | 0.00 | 80 | 1017.4 |
| 20260507074508 | 55 | 31 | 2.0 | 9.0 | 0.00 | 0.01 | 0.00 | 81 | 1017.1 |
| 20260507073015 | 55 | 26 | 2.0 | 7.0 | 0.00 | 0.01 | 0.00 | 80 | 1016.8 |
| 20260507071514 | 55 | 44 | 4.0 | 11.0 | 0.00 | 0.01 | 0.00 | 80 | 1016.5 |
| 20260507070026 | 55 | 50 | 3.0 | 10.0 | 0.00 | 0.01 | 0.00 | 79 | 1016.6 |
| 20260507064516 | 55 | 42 | 4.0 | 9.0 | 0.00 | 0.01 | 0.00 | 79 | 1016.6 |
| 20260507063016 | 55 | 31 | 4.0 | 11.0 | 0.00 | 0.01 | 0.00 | 77 | 1017.0 |
| 20260507061516 | 56 | 53 | 4.0 | 12.0 | 0.00 | 0.01 | 0.00 | 76 | 1016.8 |
| 20260507060020 | 56 | 54 | 2.0 | 13.0 | 0.00 | 0.01 | 0.00 | 75 | 1016.9 |
| 20260507054515 | 57 | 61 | 10.0 | 16.0 | 0.00 | 0.01 | 0.00 | 75 | 1016.8 |
| 20260507053015 | 57 | 48 | 5.0 | 11.0 | 0.00 | 0.01 | 0.00 | 75 | 1016.8 |
| 20260507051524 | 57 | 34 | 8.0 | 13.0 | 0.00 | 0.01 | 0.00 | 75 | 1016.7 |
| 20260507050025 | 57 | 55 | 5.0 | 12.0 | 0.00 | 0.01 | 0.00 | 75 | 1016.8 |
| 20260507044517 | 58 | 53 | 6.0 | 13.0 | 0.00 | 0.01 | 0.01 | 75 | 1017.1 |
| 20260507043018 | 58 | 9 | 4.0 | 11.0 | 0.00 | 0.01 | 0.01 | 75 | 1017.3 |
| 20260507041518 | 58 | 33 | 3.0 | 11.0 | 0.00 | 0.01 | 0.01 | 76 | 1017.3 |
| 20260507040022 | 58 | 40 | 3.0 | 10.0 | 0.00 | 0.01 | 0.01 | 76 | 1017.2 |
| 20260507034520 | 58 | 28 | 3.0 | 10.0 | 0.00 | 0.01 | 0.01 | 76 | 1017.3 |
| 20260507033027 | 58 | 360 | 5.0 | 11.0 | 0.00 | 0.01 | 0.01 | 77 | 1017.3 |
| 20260507031524 | 58 | 24 | 5.0 | 10.0 | 0.00 | 0.01 | 0.01 | 78 | 1017.0 |
| 20260507030010 | 58 | 24 | 6.0 | 12.0 | 0.00 | 0.01 | 0.01 | 78 | 1016.7 |
| 20260507024512 | 58 | 22 | 4.0 | 13.0 | 0.00 | 0.01 | 0.01 | 78 | 1016.2 |
| 20260507023014 | 58 | 355 | 4.0 | 12.0 | 0.00 | 0.01 | 0.01 | 78 | 1016.0 |
| 20260507021504 | 58 | 5 | 5.0 | 11.0 | 0.00 | 0.01 | 0.01 | 78 | 1015.9 |
| 20260507020010 | 58 | 42 | 5.0 | 12.0 | 0.00 | 0.01 | 0.01 | 78 | 1015.6 |
| 20260507014512 | 58 | 360 | 5.0 | 10.0 | 0.00 | 0.01 | 0.01 | 78 | 1015.3 |
| 20260507013018 | 58 | 55 | 3.0 | 10.0 | 0.00 | 0.01 | 0.01 | 79 | 1014.9 |
| 20260507011529 | 58 | 360 | 2.0 | 9.0 | 0.01 | 0.01 | 0.01 | 79 | 1014.4 |
| 20260507010020 | 58 | 20 | 3.0 | 10.0 | 0.01 | 0.01 | 0.01 | 79 | 1014.4 |
| 20260507004507 | 58 | 42 | 2.0 | 9.0 | 0.01 | 0.01 | 0.01 | 78 | 1014.5 |
| 20260507003011 | 59 | 51 | 3.0 | 12.0 | 0.01 | 0.01 | 0.01 | 77 | 1014.3 |
| 20260507001525 | 60 | 18 | 5.0 | 9.0 | 0.00 | 0.00 | 0.00 | 75 | 1014.2 |